Location: Wanzleben
(52.0609°N, 11.4408°E)
Time: 03:29:12
(UTC+00:00)

USA 234 - Pass Details

Date: 18 September 2020
Orbit: 1102 x 1106 km, 123.0° (Epoch: 16 October)

Event Time Altitude Azimuth Distance (km) Brightness Sun altitude
Rises 21:58:42 0° 69° (ENE) 3,925 6.2 -34.6°
Reaches altitude 10° 22:01:12 10° 67° (ENE) 2,966 5.5 -34.7°
Enters shadow 22:03:22 23° 62° (ENE) 2,175 4.8 -34.8°
Exits shadow 22:06:55 60° 21° (NNE) 1,250 3.6 -35.0°
Maximum altitude 22:07:39 65° 348° (NNW) 1,209 3.5 -35.0°
Drops below altitude 10° 22:14:07 10° 268° (W) 2,965 5.6 -35.3°
Sets 22:16:37 0° 266° (W) 3,922 6.3 -35.4°
